owner,sensor,date,latitude,longitude,vertical_datum,sea_water_practical_salinity,qcFlag 
LUMCON,ioos:station:LUMCON:wisl1:1,2019-05-01T00:00:00Z,29.1144,-90.1840,2.177,21.3,11111222 
LUMCON,ioos:station:LUMCON:wisl1:1,2019-05-01T00:15:00Z,29.1144,-90.1840,2.171,21.07,11111222 
LUMCON,ioos:station:LUMCON:wisl1:1,2019-05-01T00:30:00Z,29.1144,-90.1840,2.17,20.95,11111222 
LUMCON,ioos:station:LUMCON:wisl1:1,2019-05-01T00:45:00Z,29.1144,-90.1840,2.17,21.04,11111222 
LUMCON,ioos:station:LUMCON:wisl1:1,2019-05-01T01:00:00Z,29.1144,-90.1840,2.168,20.56,11111222 
LUMCON,ioos:station:LUMCON:wisl1:1,2019-05-01T01:15:00Z,29.1144,-90.1840,2.166,20.93,11111222 
LUMCON,ioos:station:LUMCON:wisl1:1,2019-05-01T01:30:00Z,29.1144,-90.1840,2.163,21.11,11111222 
LUMCON,ioos:station:LUMCON:wisl1:1,2019-05-01T01:45:00Z,29.1144,-90.1840,2.164,21.68,11111222 
LUMCON,ioos:station:LUMCON:wisl1:1,2019-05-01T02:00:00Z,29.1144,-90.1840,2.153,21.64,11111222 
LUMCON,ioos:station:LUMCON:wisl1:1,2019-05-01T02:15:00Z,29.1144,-90.1840,2.151,21.91,11111222 
LUMCON,ioos:station:LUMCON:wisl1:1,2019-05-01T02:30:00Z,29.1144,-90.1840,2.142,21.8,11111222 
LUMCON,ioos:station:LUMCON:wisl1:1,2019-05-01T02:45:00Z,29.1144,-90.1840,2.149,21.8,11111222 
LUMCON,ioos:station:LUMCON:wisl1:1,2019-05-01T03:00:00Z,29.1144,-90.1840,2.144,21.76,11111222 
LUMCON,ioos:station:LUMCON:wisl1:1,2019-05-01T03:15:00Z,29.1144,-90.1840,2.155,21.77,11111222 
LUMCON,ioos:station:LUMCON:wisl1:1,2019-05-01T03:30:00Z,29.1144,-90.1840,2.157,21.99,11111222 
LUMCON,ioos:station:LUMCON:wisl1:1,2019-05-01T03:45:00Z,29.1144,-90.1840,2.143,22.0,11111222 
LUMCON,ioos:station:LUMCON:wisl1:1,2019-05-01T04:00:00Z,29.1144,-90.1840,2.14,21.72,11111222 
LUMCON,ioos:station:LUMCON:wisl1:1,2019-05-01T04:15:00Z,29.1144,-90.1840,2.147,21.03,11111222 
LUMCON,ioos:station:LUMCON:wisl1:1,2019-05-01T04:30:00Z,29.1144,-90.1840,2.164,21.94,11111222 
LUMCON,ioos:station:LUMCON:wisl1:1,2019-05-01T04:45:00Z,29.1144,-90.1840,2.156,21.86,11111222 
LUMCON,ioos:station:LUMCON:wisl1:1,2019-05-01T05:00:00Z,29.1144,-90.1840,2.165,20.62,11111222 
LUMCON,ioos:station:LUMCON:wisl1:1,2019-05-01T05:15:00Z,29.1144,-90.1840,2.175,20.48,11111222 
LUMCON,ioos:station:LUMCON:wisl1:1,2019-05-01T05:30:00Z,29.1144,-90.1840,2.171,20.84,11111222 
LUMCON,ioos:station:LUMCON:wisl1:1,2019-05-01T05:45:00Z,29.1144,-90.1840,2.178,20.59,11111222 
LUMCON,ioos:station:LUMCON:wisl1:1,2019-05-01T06:00:00Z,29.1144,-90.1840,2.177,21.34,11111222 
LUMCON,ioos:station:LUMCON:wisl1:1,2019-05-01T06:15:00Z,29.1144,-90.1840,2.18,21.38,11111222 
LUMCON,ioos:station:LUMCON:wisl1:1,2019-05-01T06:30:00Z,29.1144,-90.1840,2.17,21.74,11111222 
LUMCON,ioos:station:LUMCON:wisl1:1,2019-05-01T06:45:00Z,29.1144,-90.1840,2.163,22.09,11111222 
LUMCON,ioos:station:LUMCON:wisl1:1,2019-05-01T07:00:00Z,29.1144,-90.1840,2.162,22.09,11111222 
LUMCON,ioos:station:LUMCON:wisl1:1,2019-05-01T07:15:00Z,29.1144,-90.1840,2.156,22.14,11111222 
LUMCON,ioos:station:LUMCON:wisl1:1,2019-05-01T07:30:00Z,29.1144,-90.1840,2.142,22.09,11111222 
LUMCON,ioos:station:LUMCON:wisl1:1,2019-05-01T07:45:00Z,29.1144,-90.1840,2.149,21.63,11111222 
LUMCON,ioos:station:LUMCON:wisl1:1,2019-05-01T08:00:00Z,29.1144,-90.1840,2.152,21.65,11111222 
LUMCON,ioos:station:LUMCON:wisl1:1,2019-05-01T08:15:00Z,29.1144,-90.1840,2.157,21.09,11111222 
LUMCON,ioos:station:LUMCON:wisl1:1,2019-05-01T08:30:00Z,29.1144,-90.1840,2.169,21.1,11111222 
LUMCON,ioos:station:LUMCON:wisl1:1,2019-05-01T08:45:00Z,29.1144,-90.1840,2.17,21.49,11111222 
LUMCON,ioos:station:LUMCON:wisl1:1,2019-05-01T09:00:00Z,29.1144,-90.1840,2.167,21.91,11111222 
LUMCON,ioos:station:LUMCON:wisl1:1,2019-05-01T09:15:00Z,29.1144,-90.1840,2.169,21.0,11111222 
LUMCON,ioos:station:LUMCON:wisl1:1,2019-05-01T09:30:00Z,29.1144,-90.1840,2.173,22.22,11111222 
LUMCON,ioos:station:LUMCON:wisl1:1,2019-05-01T09:45:00Z,29.1144,-90.1840,2.158,22.21,11111222 
LUMCON,ioos:station:LUMCON:wisl1:1,2019-05-01T10:00:00Z,29.1144,-90.1840,2.164,22.22,11111222 
LUMCON,ioos:station:LUMCON:wisl1:1,2019-05-01T10:15:00Z,29.1144,-90.1840,2.175,22.12,11111222 
LUMCON,ioos:station:LUMCON:wisl1:1,2019-05-01T10:30:00Z,29.1144,-90.1840,2.169,21.87,11111222 
LUMCON,ioos:station:LUMCON:wisl1:1,2019-05-01T10:45:00Z,29.1144,-90.1840,2.174,21.9,11111222 
LUMCON,ioos:station:LUMCON:wisl1:1,2019-05-01T11:00:00Z,29.1144,-90.1840,2.181,21.26,11111222 
LUMCON,ioos:station:LUMCON:wisl1:1,2019-05-01T11:15:00Z,29.1144,-90.1840,2.182,21.59,11111222 
LUMCON,ioos:station:LUMCON:wisl1:1,2019-05-01T11:30:00Z,29.1144,-90.1840,2.184,21.53,11111222 
LUMCON,ioos:station:LUMCON:wisl1:1,2019-05-01T11:45:00Z,29.1144,-90.1840,2.182,21.56,11111222 
LUMCON,ioos:station:LUMCON:wisl1:1,2019-05-01T12:00:00Z,29.1144,-90.1840,2.189,21.6,11111222 
LUMCON,ioos:station:LUMCON:wisl1:1,2019-05-01T12:15:00Z,29.1144,-90.1840,2.182,21.82,11111222 
LUMCON,ioos:station:LUMCON:wisl1:1,2019-05-01T12:30:00Z,29.1144,-90.1840,2.189,21.95,11111222 
LUMCON,ioos:station:LUMCON:wisl1:1,2019-05-01T12:45:00Z,29.1144,-90.1840,2.185,22.17,11111222 
LUMCON,ioos:station:LUMCON:wisl1:1,2019-05-01T13:00:00Z,29.1144,-90.1840,2.188,21.8,11111222 
LUMCON,ioos:station:LUMCON:wisl1:1,2019-05-01T13:15:00Z,29.1144,-90.1840,2.193,22.12,11111222 
LUMCON,ioos:station:LUMCON:wisl1:1,2019-05-01T13:30:00Z,29.1144,-90.1840,2.205,22.31,11111222 
LUMCON,ioos:station:LUMCON:wisl1:1,2019-05-01T13:45:00Z,29.1144,-90.1840,2.207,21.56,11111222 
LUMCON,ioos:station:LUMCON:wisl1:1,2019-05-01T14:00:00Z,29.1144,-90.1840,2.215,21.4,11111222 
LUMCON,ioos:station:LUMCON:wisl1:1,2019-05-01T14:15:00Z,29.1144,-90.1840,2.214,22.1,11111222 
LUMCON,ioos:station:LUMCON:wisl1:1,2019-05-01T14:30:00Z,29.1144,-90.1840,2.217,22.48,11111222 
LUMCON,ioos:station:LUMCON:wisl1:1,2019-05-01T14:45:00Z,29.1144,-90.1840,2.219,22.39,11111222 
LUMCON,ioos:station:LUMCON:wisl1:1,2019-05-01T15:00:00Z,29.1144,-90.1840,2.216,21.97,11111222 
LUMCON,ioos:station:LUMCON:wisl1:1,2019-05-01T15:15:00Z,29.1144,-90.1840,2.219,22.49,11111222 
LUMCON,ioos:station:LUMCON:wisl1:1,2019-05-01T15:30:00Z,29.1144,-90.1840,2.216,22.32,11111222 
LUMCON,ioos:station:LUMCON:wisl1:1,2019-05-01T15:45:00Z,29.1144,-90.1840,2.214,22.72,11111222 
LUMCON,ioos:station:LUMCON:wisl1:1,2019-05-01T16:00:00Z,29.1144,-90.1840,2.212,22.01,11111222 
LUMCON,ioos:station:LUMCON:wisl1:1,2019-05-01T16:15:00Z,29.1144,-90.1840,2.213,22.61,11111222 
LUMCON,ioos:station:LUMCON:wisl1:1,2019-05-01T16:30:00Z,29.1144,-90.1840,2.211,22.05,11111222 
LUMCON,ioos:station:LUMCON:wisl1:1,2019-05-01T16:45:00Z,29.1144,-90.1840,2.207,21.62,11111222 
LUMCON,ioos:station:LUMCON:wisl1:1,2019-05-01T17:00:00Z,29.1144,-90.1840,2.204,21.6,11111222 
LUMCON,ioos:station:LUMCON:wisl1:1,2019-05-01T17:15:00Z,29.1144,-90.1840,2.198,21.66,11111222 
LUMCON,ioos:station:LUMCON:wisl1:1,2019-05-01T17:30:00Z,29.1144,-90.1840,2.184,22.0,11111222 
LUMCON,ioos:station:LUMCON:wisl1:1,2019-05-01T17:45:00Z,29.1144,-90.1840,2.189,22.35,11111222 
LUMCON,ioos:station:LUMCON:wisl1:1,2019-05-01T18:00:00Z,29.1144,-90.1840,2.175,22.39,11111222 
LUMCON,ioos:station:LUMCON:wisl1:1,2019-05-01T18:15:00Z,29.1144,-90.1840,2.173,22.32,11111222 
LUMCON,ioos:station:LUMCON:wisl1:1,2019-05-01T18:30:00Z,29.1144,-90.1840,2.164,22.56,11111222 
LUMCON,ioos:station:LUMCON:wisl1:1,2019-05-01T18:45:00Z,29.1144,-90.1840,2.158,22.31,11111222 
LUMCON,ioos:station:LUMCON:wisl1:1,2019-05-01T19:00:00Z,29.1144,-90.1840,2.149,22.38,11111222 
LUMCON,ioos:station:LUMCON:wisl1:1,2019-05-01T19:15:00Z,29.1144,-90.1840,2.141,22.11,11111222 
LUMCON,ioos:station:LUMCON:wisl1:1,2019-05-01T19:30:00Z,29.1144,-90.1840,2.139,22.05,11111222 
LUMCON,ioos:station:LUMCON:wisl1:1,2019-05-01T19:45:00Z,29.1144,-90.1840,2.127,22.14,11111222 
LUMCON,ioos:station:LUMCON:wisl1:1,2019-05-01T20:00:00Z,29.1144,-90.1840,2.105,22.31,11111222 
LUMCON,ioos:station:LUMCON:wisl1:1,2019-05-01T20:15:00Z,29.1144,-90.1840,2.096,22.51,11111222 
LUMCON,ioos:station:LUMCON:wisl1:1,2019-05-01T20:30:00Z,29.1144,-90.1840,2.087,22.24,11111222 
LUMCON,ioos:station:LUMCON:wisl1:1,2019-05-01T20:45:00Z,29.1144,-90.1840,2.072,22.27,11111222 
LUMCON,ioos:station:LUMCON:wisl1:1,2019-05-01T21:00:00Z,29.1144,-90.1840,2.07,22.09,11111222 
LUMCON,ioos:station:LUMCON:wisl1:1,2019-05-01T21:15:00Z,29.1144,-90.1840,2.061,22.23,11111222 
LUMCON,ioos:station:LUMCON:wisl1:1,2019-05-01T21:30:00Z,29.1144,-90.1840,2.044,22.11,11111222 
LUMCON,ioos:station:LUMCON:wisl1:1,2019-05-01T21:45:00Z,29.1144,-90.1840,2.045,22.23,11111222 
LUMCON,ioos:station:LUMCON:wisl1:1,2019-05-01T22:00:00Z,29.1144,-90.1840,2.042,22.24,11111222 
LUMCON,ioos:station:LUMCON:wisl1:1,2019-05-01T22:15:00Z,29.1144,-90.1840,2.037,22.27,11111222 
LUMCON,ioos:station:LUMCON:wisl1:1,2019-05-01T22:30:00Z,29.1144,-90.1840,2.037,22.28,11111222 
LUMCON,ioos:station:LUMCON:wisl1:1,2019-05-01T22:45:00Z,29.1144,-90.1840,2.04,22.27,11111222 
LUMCON,ioos:station:LUMCON:wisl1:1,2019-05-01T23:00:00Z,29.1144,-90.1840,2.039,22.37,11111222 
LUMCON,ioos:station:LUMCON:wisl1:1,2019-05-01T23:15:00Z,29.1144,-90.1840,2.035,22.46,11111222 
LUMCON,ioos:station:LUMCON:wisl1:1,2019-05-09T11:30:00Z,29.1144,-90.1840,2.191,16.35,11111222 
LUMCON,ioos:station:LUMCON:wisl1:1,2019-05-09T11:45:00Z,29.1144,-90.1840,2.21,16.29,11111222 
LUMCON,ioos:station:LUMCON:wisl1:1,2019-05-09T12:00:00Z,29.1144,-90.1840,2.228,16.26,11111222 
LUMCON,ioos:station:LUMCON:wisl1:1,2019-05-09T12:15:00Z,29.1144,-90.1840,2.246,16.19,11111222 
LUMCON,ioos:station:LUMCON:wisl1:1,2019-05-09T12:30:00Z,29.1144,-90.1840,2.267,16.16,11111222 
LUMCON,ioos:station:LUMCON:wisl1:1,2019-05-09T12:45:00Z,29.1144,-90.1840,2.281,16.16,11111222 
LUMCON,ioos:station:LUMCON:wisl1:1,2019-05-09T13:00:00Z,29.1144,-90.1840,2.302,16.1,11111222 
LUMCON,ioos:station:LUMCON:wisl1:1,2019-05-09T13:15:00Z,29.1144,-90.1840,2.313,16.07,11111222 
LUMCON,ioos:station:LUMCON:wisl1:1,2019-05-09T13:30:00Z,29.1144,-90.1840,2.326,16.01,11111222 
LUMCON,ioos:station:LUMCON:wisl1:1,2019-05-09T13:45:00Z,29.1144,-90.1840,2.333,16.02,11111222 
LUMCON,ioos:station:LUMCON:wisl1:1,2019-05-09T14:00:00Z,29.1144,-90.1840,2.342,15.96,11111222 
LUMCON,ioos:station:LUMCON:wisl1:1,2019-05-09T14:15:00Z,29.1144,-90.1840,2.356,15.99,11111222 
LUMCON,ioos:station:LUMCON:wisl1:1,2019-05-09T14:30:00Z,29.1144,-90.1840,2.366,15.98,11111222 
LUMCON,ioos:station:LUMCON:wisl1:1,2019-05-09T14:45:00Z,29.1144,-90.1840,2.369,15.94,11111222 
LUMCON,ioos:station:LUMCON:wisl1:1,2019-05-09T15:00:00Z,29.1144,-90.1840,2.373,15.87,11111222 
LUMCON,ioos:station:LUMCON:wisl1:1,2019-05-09T15:15:00Z,29.1144,-90.1840,2.382,15.86,11111222 
LUMCON,ioos:station:LUMCON:wisl1:1,2019-05-09T15:30:00Z,29.1144,-90.1840,2.386,15.83,11111222 
LUMCON,ioos:station:LUMCON:wisl1:1,2019-05-09T15:45:00Z,29.1144,-90.1840,2.389,15.69,11111222 
LUMCON,ioos:station:LUMCON:wisl1:1,2019-05-09T16:00:00Z,29.1144,-90.1840,2.389,15.67,11111222 
LUMCON,ioos:station:LUMCON:wisl1:1,2019-05-09T16:15:00Z,29.1144,-90.1840,2.398,15.71,11111222 
LUMCON,ioos:station:LUMCON:wisl1:1,2019-05-09T16:30:00Z,29.1144,-90.1840,2.399,15.61,11111222 
LUMCON,ioos:station:LUMCON:wisl1:1,2019-05-09T16:45:00Z,29.1144,-90.1840,2.4,15.71,11111222 
LUMCON,ioos:station:LUMCON:wisl1:1,2019-05-09T17:00:00Z,29.1144,-90.1840,2.39,15.8,11111222 
LUMCON,ioos:station:LUMCON:wisl1:1,2019-05-09T17:15:00Z,29.1144,-90.1840,2.383,15.64,11111222 
LUMCON,ioos:station:LUMCON:wisl1:1,2019-05-09T17:30:00Z,29.1144,-90.1840,2.381,15.69,11111222 
LUMCON,ioos:station:LUMCON:wisl1:1,2019-05-09T17:45:00Z,29.1144,-90.1840,2.373,15.82,11111222 
LUMCON,ioos:station:LUMCON:wisl1:1,2019-05-09T18:00:00Z,29.1144,-90.1840,2.366,15.71,11111222 
LUMCON,ioos:station:LUMCON:wisl1:1,2019-05-09T18:15:00Z,29.1144,-90.1840,2.367,15.64,11111222 
LUMCON,ioos:station:LUMCON:wisl1:1,2019-05-09T18:30:00Z,29.1144,-90.1840,2.363,15.74,11111222 
LUMCON,ioos:station:LUMCON:wisl1:1,2019-05-09T18:45:00Z,29.1144,-90.1840,2.354,15.67,11111222 
LUMCON,ioos:station:LUMCON:wisl1:1,2019-05-09T19:00:00Z,29.1144,-90.1840,2.35,15.51,11111222 
LUMCON,ioos:station:LUMCON:wisl1:1,2019-05-09T19:15:00Z,29.1144,-90.1840,2.349,15.61,11111222 
LUMCON,ioos:station:LUMCON:wisl1:1,2019-05-09T19:30:00Z,29.1144,-90.1840,2.346,15.49,11111222 
LUMCON,ioos:station:LUMCON:wisl1:1,2019-05-09T19:45:00Z,29.1144,-90.1840,2.338,15.5,11111222 
LUMCON,ioos:station:LUMCON:wisl1:1,2019-05-09T20:00:00Z,29.1144,-90.1840,2.334,15.48,11111222 
LUMCON,ioos:station:LUMCON:wisl1:1,2019-05-09T20:15:00Z,29.1144,-90.1840,2.339,15.49,11111222 
LUMCON,ioos:station:LUMCON:wisl1:1,2019-05-09T20:30:00Z,29.1144,-90.1840,2.34,15.49,11111222 
LUMCON,ioos:station:LUMCON:wisl1:1,2019-05-09T20:45:00Z,29.1144,-90.1840,2.336,15.49,11111222 
LUMCON,ioos:station:LUMCON:wisl1:1,2019-05-09T21:00:00Z,29.1144,-90.1840,2.313,15.49,11111222 
LUMCON,ioos:station:LUMCON:wisl1:1,2019-05-09T21:15:00Z,29.1144,-90.1840,2.287,15.55,11111222 
LUMCON,ioos:station:LUMCON:wisl1:1,2019-05-09T21:30:00Z,29.1144,-90.1840,2.271,15.63,11111222 
LUMCON,ioos:station:LUMCON:wisl1:1,2019-05-09T21:45:00Z,29.1144,-90.1840,2.247,15.64,11111222 
LUMCON,ioos:station:LUMCON:wisl1:1,2019-05-09T22:00:00Z,29.1144,-90.1840,2.216,15.68,11111222 
LUMCON,ioos:station:LUMCON:wisl1:1,2019-05-09T22:15:00Z,29.1144,-90.1840,2.185,15.71,11111222 
LUMCON,ioos:station:LUMCON:wisl1:1,2019-05-09T22:30:00Z,29.1144,-90.1840,2.158,15.81,11111222 
LUMCON,ioos:station:LUMCON:wisl1:1,2019-05-09T22:45:00Z,29.1144,-90.1840,2.13,15.87,11111222 
LUMCON,ioos:station:LUMCON:wisl1:1,2019-05-09T23:00:00Z,29.1144,-90.1840,2.111,15.95,11111222 
LUMCON,ioos:station:LUMCON:wisl1:1,2019-05-09T23:15:00Z,29.1144,-90.1840,2.084,15.93,11111222 
LUMCON,ioos:station:LUMCON:wisl1:1,2019-05-09T23:30:00Z,29.1144,-90.1840,2.065,16.02,11111222 
LUMCON,ioos:station:LUMCON:wisl1:1,2019-05-09T23:45:00Z,29.1144,-90.1840,2.052,16.15,11111222 
LUMCON,ioos:station:LUMCON:wisl1:1,2019-05-10T00:00:00Z,29.1144,-90.1840,2.037,16.25,11111222 
LUMCON,ioos:station:LUMCON:wisl1:1,2019-05-10T00:15:00Z,29.1144,-90.1840,2.019,16.36,11111222 
LUMCON,ioos:station:LUMCON:wisl1:1,2019-05-10T00:30:00Z,29.1144,-90.1840,2.001,16.49,11111222 
LUMCON,ioos:station:LUMCON:wisl1:1,2019-05-10T00:45:00Z,29.1144,-90.1840,1.988,16.44,11111222 
LUMCON,ioos:station:LUMCON:wisl1:1,2019-05-10T01:00:00Z,29.1144,-90.1840,1.955,16.46,11111222 
LUMCON,ioos:station:LUMCON:wisl1:1,2019-05-10T01:15:00Z,29.1144,-90.1840,1.937,16.54,11111222 
LUMCON,ioos:station:LUMCON:wisl1:1,2019-05-10T01:30:00Z,29.1144,-90.1840,1.903,16.61,11111222 
LUMCON,ioos:station:LUMCON:wisl1:1,2019-05-10T01:45:00Z,29.1144,-90.1840,1.872,16.67,11111222 
LUMCON,ioos:station:LUMCON:wisl1:1,2019-05-10T02:00:00Z,29.1144,-90.1840,1.853,16.76,11111222 
LUMCON,ioos:station:LUMCON:wisl1:1,2019-05-10T02:15:00Z,29.1144,-90.1840,1.829,16.79,11111222 
LUMCON,ioos:station:LUMCON:wisl1:1,2019-05-10T02:30:00Z,29.1144,-90.1840,1.827,16.88,11111222 
LUMCON,ioos:station:LUMCON:wisl1:1,2019-05-10T02:45:00Z,29.1144,-90.1840,1.828,17.03,11111222 
LUMCON,ioos:station:LUMCON:wisl1:1,2019-05-10T03:00:00Z,29.1144,-90.1840,1.825,17.08,11111222 
LUMCON,ioos:station:LUMCON:wisl1:1,2019-05-10T03:15:00Z,29.1144,-90.1840,1.819,17.17,11111222 
LUMCON,ioos:station:LUMCON:wisl1:1,2019-05-10T03:30:00Z,29.1144,-90.1840,1.838,17.25,11111222 
LUMCON,ioos:station:LUMCON:wisl1:1,2019-05-10T03:45:00Z,29.1144,-90.1840,1.834,17.25,11111222 
LUMCON,ioos:station:LUMCON:wisl1:1,2019-05-10T04:00:00Z,29.1144,-90.1840,1.849,17.31,11111222 
LUMCON,ioos:station:LUMCON:wisl1:1,2019-05-10T04:15:00Z,29.1144,-90.1840,1.854,17.34,11111222 
LUMCON,ioos:station:LUMCON:wisl1:1,2019-05-10T04:30:00Z,29.1144,-90.1840,1.872,17.39,11111222 
LUMCON,ioos:station:LUMCON:wisl1:1,2019-05-10T04:45:00Z,29.1144,-90.1840,1.87,17.46,11111222 
LUMCON,ioos:station:LUMCON:wisl1:1,2019-05-10T05:00:00Z,29.1144,-90.1840,1.884,17.43,11111222 
LUMCON,ioos:station:LUMCON:wisl1:1,2019-05-10T05:15:00Z,29.1144,-90.1840,1.892,17.54,11111222 
LUMCON,ioos:station:LUMCON:wisl1:1,2019-05-10T05:30:00Z,29.1144,-90.1840,1.892,17.53,11111222 
LUMCON,ioos:station:LUMCON:wisl1:1,2019-05-10T05:45:00Z,29.1144,-90.1840,1.898,17.6,11111222 
LUMCON,ioos:station:LUMCON:wisl1:1,2019-05-10T06:00:00Z,29.1144,-90.1840,1.897,17.6,11111222 
LUMCON,ioos:station:LUMCON:wisl1:1,2019-05-10T06:15:00Z,29.1144,-90.1840,1.905,17.65,11111222 
LUMCON,ioos:station:LUMCON:wisl1:1,2019-05-10T06:30:00Z,29.1144,-90.1840,1.905,17.61,11111222 
LUMCON,ioos:station:LUMCON:wisl1:1,2019-05-10T06:45:00Z,29.1144,-90.1840,1.916,17.72,11111222 
LUMCON,ioos:station:LUMCON:wisl1:1,2019-05-10T07:00:00Z,29.1144,-90.1840,1.934,17.66,11111222 
LUMCON,ioos:station:LUMCON:wisl1:1,2019-05-10T07:15:00Z,29.1144,-90.1840,1.946,17.74,11111222 
LUMCON,ioos:station:LUMCON:wisl1:1,2019-05-10T07:30:00Z,29.1144,-90.1840,1.966,17.74,11111222 
LUMCON,ioos:station:LUMCON:wisl1:1,2019-05-10T07:45:00Z,29.1144,-90.1840,1.985,17.73,11111222 
LUMCON,ioos:station:LUMCON:wisl1:1,2019-05-10T08:00:00Z,29.1144,-90.1840,2.009,17.73,11111222 
LUMCON,ioos:station:LUMCON:wisl1:1,2019-05-10T08:15:00Z,29.1144,-90.1840,2.03,17.71,11111222 
LUMCON,ioos:station:LUMCON:wisl1:1,2019-05-10T08:30:00Z,29.1144,-90.1840,2.041,17.71,11111222 
LUMCON,ioos:station:LUMCON:wisl1:1,2019-05-10T08:45:00Z,29.1144,-90.1840,2.048,17.68,11111222 
LUMCON,ioos:station:LUMCON:wisl1:1,2019-05-10T09:00:00Z,29.1144,-90.1840,2.051,17.64,11111222 
LUMCON,ioos:station:LUMCON:wisl1:1,2019-05-10T09:15:00Z,29.1144,-90.1840,2.06,17.61,11111222 
LUMCON,ioos:station:LUMCON:wisl1:1,2019-05-10T09:30:00Z,29.1144,-90.1840,2.07,17.57,11111222 
LUMCON,ioos:station:LUMCON:wisl1:1,2019-05-10T09:45:00Z,29.1144,-90.1840,2.088,17.56,11111222 
LUMCON,ioos:station:LUMCON:wisl1:1,2019-05-10T10:00:00Z,29.1144,-90.1840,2.092,17.36,11111222 
LUMCON,ioos:station:LUMCON:wisl1:1,2019-05-10T10:15:00Z,29.1144,-90.1840,2.102,16.74,11111222 
LUMCON,ioos:station:LUMCON:wisl1:1,2019-05-10T10:30:00Z,29.1144,-90.1840,2.119,16.35,11111222 
LUMCON,ioos:station:LUMCON:wisl1:1,2019-05-10T10:45:00Z,29.1144,-90.1840,2.133,15.87,11111222 
LUMCON,ioos:station:LUMCON:wisl1:1,2019-05-10T11:00:00Z,29.1144,-90.1840,2.162,15.1,11111222 
LUMCON,ioos:station:LUMCON:wisl1:1,2019-05-10T11:15:00Z,29.1144,-90.1840,2.185,14.05,11111222 
LUMCON,ioos:station:LUMCON:wisl1:1,2019-05-10T11:30:00Z,29.1144,-90.1840,2.213,12.97,11111222 
LUMCON,ioos:station:LUMCON:wisl1:1,2019-05-10T11:45:00Z,29.1144,-90.1840,2.239,12.37,11111222 
LUMCON,ioos:station:LUMCON:wisl1:1,2019-05-10T12:00:00Z,29.1144,-90.1840,2.261,11.97,11111222 
LUMCON,ioos:station:LUMCON:wisl1:1,2019-05-10T12:15:00Z,29.1144,-90.1840,2.285,11.34,11111222 
LUMCON,ioos:station:LUMCON:wisl1:1,2019-05-10T12:30:00Z,29.1144,-90.1840,2.314,11.39,11111222 
LUMCON,ioos:station:LUMCON:wisl1:1,2019-05-10T12:45:00Z,29.1144,-90.1840,2.329,11.36,11111222 
LUMCON,ioos:station:LUMCON:wisl1:1,2019-05-10T13:00:00Z,29.1144,-90.1840,2.343,11.26,11111222 
LUMCON,ioos:station:LUMCON:wisl1:1,2019-05-10T13:15:00Z,29.1144,-90.1840,2.346,11.28,11111222 
LUMCON,ioos:station:LUMCON:wisl1:1,2019-05-10T13:30:00Z,29.1144,-90.1840,2.357,11.37,11111222 
LUMCON,ioos:station:LUMCON:wisl1:1,2019-05-10T13:45:00Z,29.1144,-90.1840,2.364,11.43,11111222 
LUMCON,ioos:station:LUMCON:wisl1:1,2019-05-10T14:00:00Z,29.1144,-90.1840,2.368,11.54,11111222 
LUMCON,ioos:station:LUMCON:wisl1:1,2019-05-10T14:15:00Z,29.1144,-90.1840,2.381,11.56,11111222 
LUMCON,ioos:station:LUMCON:wisl1:1,2019-05-10T14:30:00Z,29.1144,-90.1840,2.401,11.68,11111222 
LUMCON,ioos:station:LUMCON:wisl1:1,2019-05-10T14:45:00Z,29.1144,-90.1840,2.41,11.65,11111222 
LUMCON,ioos:station:LUMCON:wisl1:1,2019-05-10T15:00:00Z,29.1144,-90.1840,2.424,11.64,11111222 
LUMCON,ioos:station:LUMCON:wisl1:1,2019-05-10T15:15:00Z,29.1144,-90.1840,2.435,11.67,11111222 
LUMCON,ioos:station:LUMCON:wisl1:1,2019-05-10T15:30:00Z,29.1144,-90.1840,2.454,11.87,11111222 
LUMCON,ioos:station:LUMCON:wisl1:1,2019-05-10T15:45:00Z,29.1144,-90.1840,2.468,11.83,11111222 
LUMCON,ioos:station:LUMCON:wisl1:1,2019-05-10T16:00:00Z,29.1144,-90.1840,2.48,12.14,11111222 
LUMCON,ioos:station:LUMCON:wisl1:1,2019-05-10T16:15:00Z,29.1144,-90.1840,2.473,12.3,11111222 
LUMCON,ioos:station:LUMCON:wisl1:1,2019-05-10T16:30:00Z,29.1144,-90.1840,2.466,12.04,11111222 
LUMCON,ioos:station:LUMCON:wisl1:1,2019-05-10T16:45:00Z,29.1144,-90.1840,2.474,12.17,11111222 
LUMCON,ioos:station:LUMCON:wisl1:1,2019-05-10T17:00:00Z,29.1144,-90.1840,2.47,12.36,11111222 
LUMCON,ioos:station:LUMCON:wisl1:1,2019-05-10T17:15:00Z,29.1144,-90.1840,2.471,12.32,11111222 
LUMCON,ioos:station:LUMCON:wisl1:1,2019-05-10T17:30:00Z,29.1144,-90.1840,2.467,12.36,11111222 
LUMCON,ioos:station:LUMCON:wisl1:1,2019-05-10T17:45:00Z,29.1144,-90.1840,2.452,12.34,11111222 
LUMCON,ioos:station:LUMCON:wisl1:1,2019-05-10T18:00:00Z,29.1144,-90.1840,2.443,12.35,11111222 
LUMCON,ioos:station:LUMCON:wisl1:1,2019-05-10T18:15:00Z,29.1144,-90.1840,2.438,12.39,11111222 
LUMCON,ioos:station:LUMCON:wisl1:1,2019-05-10T18:30:00Z,29.1144,-90.1840,2.434,12.39,11111222 
LUMCON,ioos:station:LUMCON:wisl1:1,2019-05-10T18:45:00Z,29.1144,-90.1840,2.426,12.41,11111222 
LUMCON,ioos:station:LUMCON:wisl1:1,2019-05-10T19:00:00Z,29.1144,-90.1840,2.417,12.35,11111222 
LUMCON,ioos:station:LUMCON:wisl1:1,2019-05-10T19:15:00Z,29.1144,-90.1840,2.413,12.37,11111222 
LUMCON,ioos:station:LUMCON:wisl1:1,2019-05-10T19:30:00Z,29.1144,-90.1840,2.424,12.37,11111222 
LUMCON,ioos:station:LUMCON:wisl1:1,2019-05-10T19:45:00Z,29.1144,-90.1840,2.423,12.37,11111222 
LUMCON,ioos:station:LUMCON:wisl1:1,2019-05-10T20:00:00Z,29.1144,-90.1840,2.417,12.37,11111222 
LUMCON,ioos:station:LUMCON:wisl1:1,2019-05-10T20:15:00Z,29.1144,-90.1840,2.399,12.57,11111222 
LUMCON,ioos:station:LUMCON:wisl1:1,2019-05-10T20:30:00Z,29.1144,-90.1840,2.402,12.64,11111222 
LUMCON,ioos:station:LUMCON:wisl1:1,2019-05-10T20:45:00Z,29.1144,-90.1840,2.388,12.44,11111222 
LUMCON,ioos:station:LUMCON:wisl1:1,2019-05-10T21:00:00Z,29.1144,-90.1840,2.38,12.57,11111222 
LUMCON,ioos:station:LUMCON:wisl1:1,2019-05-10T21:15:00Z,29.1144,-90.1840,2.371,12.55,11111222 
LUMCON,ioos:station:LUMCON:wisl1:1,2019-05-10T21:30:00Z,29.1144,-90.1840,2.367,12.41,11111222 
LUMCON,ioos:station:LUMCON:wisl1:1,2019-05-10T21:45:00Z,29.1144,-90.1840,2.368,12.39,11111222 
LUMCON,ioos:station:LUMCON:wisl1:1,2019-05-10T22:00:00Z,29.1144,-90.1840,2.346,12.43,11111222 
LUMCON,ioos:station:LUMCON:wisl1:1,2019-05-10T22:15:00Z,29.1144,-90.1840,2.319,12.51,11111222 
LUMCON,ioos:station:LUMCON:wisl1:1,2019-05-10T22:30:00Z,29.1144,-90.1840,2.304,12.63,11111222 
LUMCON,ioos:station:LUMCON:wisl1:1,2019-05-10T22:45:00Z,29.1144,-90.1840,2.267,12.53,11111222 
LUMCON,ioos:station:LUMCON:wisl1:1,2019-05-10T23:00:00Z,29.1144,-90.1840,2.262,12.54,11111222 
LUMCON,ioos:station:LUMCON:wisl1:1,2019-05-10T23:15:00Z,29.1144,-90.1840,2.25,12.53,11111222 
LUMCON,ioos:station:LUMCON:wisl1:1,2019-05-10T23:30:00Z,29.1144,-90.1840,2.231,12.63,11111222 
LUMCON,ioos:station:LUMCON:wisl1:1,2019-05-10T23:45:00Z,29.1144,-90.1840,2.222,12.59,11111222 
LUMCON,ioos:station:LUMCON:wisl1:1,2019-05-11T00:00:00Z,29.1144,-90.1840,2.212,12.63,11111222 
LUMCON,ioos:station:LUMCON:wisl1:1,2019-05-11T00:15:00Z,29.1144,-90.1840,2.196,12.64,11111222 
LUMCON,ioos:station:LUMCON:wisl1:1,2019-05-11T00:30:00Z,29.1144,-90.1840,2.192,12.72,11111222 
LUMCON,ioos:station:LUMCON:wisl1:1,2019-05-11T00:45:00Z,29.1144,-90.1840,2.186,12.83,11111222 
LUMCON,ioos:station:LUMCON:wisl1:1,2019-05-11T01:00:00Z,29.1144,-90.1840,2.173,12.93,11111222 
LUMCON,ioos:station:LUMCON:wisl1:1,2019-05-11T01:15:00Z,29.1144,-90.1840,2.177,12.97,11111222 
LUMCON,ioos:station:LUMCON:wisl1:1,2019-05-11T01:30:00Z,29.1144,-90.1840,2.157,13.09,11111222 
LUMCON,ioos:station:LUMCON:wisl1:1,2019-05-11T01:45:00Z,29.1144,-90.1840,2.148,13.11,11111222 
LUMCON,ioos:station:LUMCON:wisl1:1,2019-05-11T02:00:00Z,29.1144,-90.1840,2.122,13.25,11111222 
LUMCON,ioos:station:LUMCON:wisl1:1,2019-05-11T02:15:00Z,29.1144,-90.1840,2.105,13.32,11111222 
LUMCON,ioos:station:LUMCON:wisl1:1,2019-05-11T02:30:00Z,29.1144,-90.1840,2.097,13.4,11111222 
LUMCON,ioos:station:LUMCON:wisl1:1,2019-05-11T02:45:00Z,29.1144,-90.1840,2.077,13.59,11111222 